[[{"header":{"parameterUnit":"m.s-1","parameterCategory":1,"la1":30.2991,"la2":30.254,"lo1":-89.0895,"lo2":-89.0444,"dy":0.0017,"dx":0.0017,"nx":28,"ny":28,"refTime":"2024-03-05T09:00:00:Z","depth":0,"parameterNumber":2,"parameterNumberName":"U-component_of_WINDS"},"data":[0,0,0,0,0,0,0,0,0,0,0,0,0,0,0,0,0,0,0,0,0,0,0,0,0,0,0,0,0,0,0,0,0,0,0,0,0,0,0,0,0,0,0,0,0,0,0,0,0,0,0,0,0,0,0,0,0,0,-4.6481,-4.6479,0,-4.6287,-4.6285,-4.6283,-4.6059,-4.6056,-4.6053,-4.605,-4.5844,-4.5842,-4.584,0,0,0,0,0,0,0,0,0,0,0,0,0,-4.6654,-4.6652,-4.6482,-4.6479,-4.6477,-4.6288,-4.6285,-4.6282,-4.606,-4.6056,-4.6052,-4.6048,-4.5845,-4.5842,-4.5839,0,0,0,0,0,0,0,0,0,0,0,0,0,-4.6532,-4.6652,-4.6482,-4.6343,-4.6329,-4.6288,-4.6285,-4.6282,-4.6061,-4.6056,-4.6051,-4.6046,-4.5846,-4.5842,-4.5839,-4.5917,0,0,-4.5828,-4.5827,0,0,0,0,0,0,0,0,-4.6539,-4.6525,-4.6366,-4.6353,-4.6337,-4.6193,-4.627,-4.6159,-4.6062,-4.6162,-4.6049,-4.6044,-4.5964,-4.595,-4.5925,-4.5908,-4.5899,-4.5828,-4.5826,-4.5824,-4.5823,0,0,0,0,0,0,0,-4.6548,-4.6532,-4.6404,-4.6364,-4.6346,-4.6289,-4.6266,-4.6248,-4.6093,-4.6153,-4.6137,-4.6117,-4.5955,-4.5929,-4.5918,-4.5896,-4.5828,-4.5825,-4.5823,-4.5821,-4.5933,-4.5938,0,0,0,0,0,0,-4.6578,-4.6541,-4.6411,-4.6399,-4.6428,-4.629,-4.6264,-4.6244,-4.6093,-4.6065,-4.6122,-4.6107,-4.5937,-4.5922,-4.591,-4.5991,-4.5824,-4.5821,-4.5819,-4.5928,-4.5934,-4.5939,0,0,0,0,0,0,-4.6582,-4.6568,-4.6418,-4.6465,-4.6442,-4.6292,-4.6271,-4.6243,-4.6216,-4.6069,-4.604,-4.6124,-4.5932,-4.5915,-4.5918,-4.5981,-4.5819,-4.5816,-4.5922,-4.593,-4.5937,-4.6156,0,0,0,0,0,0,-4.6588,-4.6571,-4.6601,-4.6468,-4.644,-4.6432,-4.6275,-4.6242,-4.6212,-4.6191,-4.6063,-4.6037,-4.5927,-4.5924,-4.5914,-4.5973,-4.5813,-4.5915,-4.5925,-4.5934,-4.6142,-4.617,-4.6194,0,0,0,0,0,-4.6595,-4.6669,-4.6604,-4.6589,-4.6475,-4.6436,-4.642,-4.6294,-4.6218,-4.6245,-4.6151,-4.6041,-4.5976,-4.5926,-4.5913,-4.5972,-4.5911,-4.5922,-4.5934,-4.6131,-4.6165,-4.6193,0,0,0,0,0,0,-4.6811,-4.6649,-4.6575,-4.6608,-4.6538,-4.6399,-4.6429,-4.6334,-4.6282,-4.6265,-4.6108,-4.6081,-4.6103,-4.6037,-4.5984,-4.604,-4.5927,-4.5937,-4.6082,-4.6113,-4.6138,-4.6153,-4.581,0,0,0,0,0,-4.6863,-4.6847,-4.6705,-4.6748,-4.6717,-4.6581,-4.6559,-4.6468,-4.6388,-4.6356,-4.6262,-4.6187,-4.6149,-4.6127,-4.6084,-4.6132,-4.61,-4.6166,-4.6192,-4.6214,-4.6223,-4.6243,-4.627,-4.5977,-4.5977,-4.5977,0,0,-4.6969,-4.6879,-4.6878,-4.679,-4.6724,-4.671,-4.6557,-4.6547,-4.6534,-4.6354,-4.6351,-4.628,-4.6185,-4.6211,-4.6218,-4.6157,-4.6298,-4.6228,-4.6247,-4.6244,-4.6258,-4.6286,-4.631,-4.5985,-4.5983,-4.5982,0,0,-4.7155,-4.7086,-4.7114,-4.7053,-4.6957,-4.6865,-4.6873,-4.6748,-4.6694,-4.669,-4.6554,-4.6535,-4.6474,-4.6412,-4.6373,-4.6538,-4.6435,-4.6528,-4.6662,-4.6683,-4.6706,-4.6726,-4.6784,-4.6807,-4.6538,-4.6539,-4.6539,0,-4.7298,-4.7273,-4.714,-4.714,-4.7104,-4.6943,-4.697,-4.6916,-4.6811,-4.6789,-4.6724,-4.6644,-4.6569,-4.6578,-4.6619,-4.6593,-4.6594,-4.6541,-4.6714,-4.6733,-4.6749,-4.6802,-4.6825,-4.6551,-4.6549,-4.6548,-4.6547,0,-4.7454,-4.7438,-4.7472,-4.7377,-4.7346,-4.7359,-4.7227,-4.721,-4.7123,-4.7038,-4.7035,-4.694,-4.6875,-4.6871,-4.6784,-4.6867,-4.6833,-4.6744,-4.6627,-4.6791,-4.6839,-4.6858,-4.6568,-4.6564,-4.656,-4.6557,0,0,-4.7768,-4.7602,-4.7616,-4.7571,-4.7455,-4.7439,-4.7445,-4.7384,-4.7373,-4.7306,-4.7305,-4.7258,-4.7175,-4.7131,-4.7036,-4.7055,-4.719,-4.6962,-4.6957,-4.7007,-4.7275,-4.7343,-4.7369,-4.7122,-4.7125,-4.7128,-4.7283,0,-4.7933,-4.7935,-4.7816,-4.785,-4.7834,-4.7681,-4.7686,-4.7614,-4.7536,-4.7508,-4.7419,-4.7389,-4.7282,-4.7254,-4.7266,-4.7172,-4.7242,-4.7159,-4.7118,-4.7118,-4.7146,-4.7394,-4.7465,-4.7615,-4.7301,-4.7304,-4.7306,0,-4.8124,-4.8071,-4.8106,-4.7988,-4.7976,-4.7983,-4.7918,-4.7895,-4.781,-4.7751,-4.7703,-4.7596,-4.7591,-4.7483,-4.7473,-4.7419,-4.7395,-4.7347,-4.7349,-4.7339,-4.7222,-4.739,-4.766,-4.7683,-4.7334,-4.7332,-4.733,0,-4.835,-4.8287,-4.8299,-4.8265,-4.8129,-4.8137,-4.808,-4.7991,-4.7962,-4.7904,-4.7883,-4.7826,-4.7794,-4.775,-4.7629,-4.7562,-4.7633,-4.7515,-4.7582,-4.7586,-4.7603,-4.7604,-4.7873,-4.7591,-4.759,-4.759,-4.759,0,-4.8546,-4.8572,-4.8399,-4.8407,-4.8431,-4.8294,-4.8321,-4.8249,-4.8171,-4.816,-4.8024,-4.8016,-4.7858,-4.7832,-4.7737,-4.7743,-4.7729,-4.768,-4.7654,-4.7692,-4.7698,-4.7673,-4.7659,-4.7596,-4.7594,-4.7593,-4.7592,0,-4.8802,-4.8687,-4.869,-4.8562,-4.853,-4.8554,-4.8442,-4.8443,-4.8357,-4.8345,-4.8334,-4.8197,-4.816,-4.8035,-4.7966,-4.7902,-4.7937,-4.7888,-4.7967,-4.795,-4.8024,-4.8019,-4.8286,-4.8314,-4.8016,-4.8019,-4.8022,0,-4.8934,-4.8951,-4.8825,-4.881,-4.876,-4.8736,-4.8706,-4.8571,-4.8546,-4.8451,-4.8463,-4.8415,-4.8369,-4.8316,-4.8209,-4.8155,-4.8103,-4.8201,-4.8094,-4.8131,-4.8104,-4.8104,-4.8104,-4.8224,-4.8228,-4.8231,-4.8234,0,-4.918,-4.9123,-4.9087,-4.9032,-4.9002,-4.8951,-4.8892,-4.8886,-4.8735,-4.8713,-4.8674,-4.864,-4.857,-4.8524,-4.8453,-4.8391,-4.8287,-4.8269,-4.8281,-4.8319,-4.8364,-4.834,-4.8029,-4.8263,-4.826,-4.8257,-4.8256,-4.8255,-4.9377,-4.9385,-4.9299,-4.9263,-4.9206,-4.9154,-4.9149,-4.9062,-4.9029,-4.8963,-4.8885,-4.8856,-4.8769,-4.8664,-4.861,-4.8583,-4.8527,-4.8545,-4.855,-4.8556,-4.8574,-4.837,-4.857,-4.8569,-4.8568,-4.8567,-4.8566,0,-4.9616,-4.9553,-4.9522,-4.9445,-4.9418,-4.9325,-4.9255,-4.9237,-4.9214,-4.9144,-4.9102,-4.9058,-4.9012,-4.8903,-4.8846,-4.8846,-4.8797,-4.8836,-4.8834,-4.8821,-4.8628,-4.8623,-4.8876,-4.8876,-4.8876,-4.8876,-4.8876,-4.8876,-4.9737,-4.9746,-4.9679,-4.9658,-4.9593,-4.9566,-4.9534,-4.9485,-4.9428,-4.9385,-4.9348,-4.9278,-4.9191,-4.9127,-4.9081,-4.9049,-4.9034,-4.9089,-4.9042,-4.8864,-4.8834,-4.8806,-4.88,-4.9087,-4.9087,-4.9236,-4.9238,-4.9239]},{"header":{"parameterUnit":"m.s-1","parameterCategory":1,"la1":30.2991,"la2":30.254,"lo1":-89.0895,"lo2":-89.0444,"dy":0.0017,"dx":0.0017,"nx":28,"ny":28,"refTime":"2024-03-05T09:00:00:Z","depth":0,"parameterNumber":3,"parameterNumberName":"V-component_of_WINDS"},"data":[0,0,0,0,0,0,0,0,0,0,0,0,0,0,0,0,0,0,0,0,0,0,0,0,0,0,0,0,0,0,0,0,0,0,0,0,0,0,0,0,0,0,0,0,0,0,0,0,0,0,0,0,0,0,0,0,0,0,2.9027,2.9028,0,2.9064,2.9064,2.9065,2.9083,2.9083,2.9083,2.9083,2.9116,2.9117,2.9118,0,0,0,0,0,0,0,0,0,0,0,0,0,2.8969,2.897,2.9027,2.9028,2.9028,2.9064,2.9064,2.9065,2.9083,2.9083,2.9083,2.9083,2.9116,2.9117,2.9118,0,0,0,0,0,0,0,0,0,0,0,0,0,2.8999,2.8971,2.9027,2.9042,2.9043,2.9064,2.9064,2.9065,2.9083,2.9083,2.9083,2.9083,2.9116,2.9117,2.9118,2.9126,0,0,2.9122,2.9123,0,0,0,0,0,0,0,0,2.8997,2.9001,2.9039,2.9041,2.9043,2.9069,2.9056,2.9085,2.9083,2.9068,2.9083,2.9083,2.91,2.9103,2.911,2.9128,2.9129,2.9123,2.9123,2.9124,2.9124,0,0,0,0,0,0,0,2.8995,2.9,2.9042,2.904,2.9042,2.9045,2.9049,2.9062,2.9083,2.9069,2.907,2.9075,2.9101,2.9108,2.9111,2.913,2.9123,2.9124,2.9125,2.9125,2.9155,2.9155,0,0,0,0,0,0,2.8991,2.8998,2.904,2.9043,2.902,2.9046,2.9051,2.906,2.9083,2.9087,2.9075,2.9075,2.9106,2.9109,2.9112,2.9122,2.9124,2.9125,2.9126,2.9155,2.9155,2.9155,0,0,0,0,0,0,2.899,2.8995,2.9039,2.9021,2.9027,2.9047,2.9058,2.9061,2.9068,2.9088,2.9091,2.9078,2.9106,2.911,2.9123,2.9124,2.9126,2.9127,2.9155,2.9155,2.9155,2.9143,0,0,0,0,0,0,2.8988,2.8994,2.8999,2.9021,2.9027,2.905,2.9058,2.9062,2.9071,2.9072,2.9092,2.9095,2.9106,2.912,2.9124,2.9125,2.9128,2.9155,2.9155,2.9155,2.9143,2.9142,2.9142,0,0,0,0,0,2.8986,2.8993,2.8999,2.9004,2.9033,2.905,2.9054,2.9068,2.9071,2.9074,2.9087,2.9094,2.9123,2.9122,2.9126,2.9127,2.9155,2.9155,2.9155,2.9144,2.9143,2.9142,0,0,0,0,0,0,2.8969,2.8996,2.9003,2.9017,2.9031,2.9053,2.9058,2.9067,2.908,2.908,2.9096,2.91,2.9111,2.9121,2.9119,2.9136,2.914,2.914,2.9129,2.9129,2.9128,2.9125,2.9129,0,0,0,0,0,2.8967,2.898,2.9002,2.9013,2.902,2.9038,2.9046,2.9056,2.907,2.9076,2.909,2.9103,2.9115,2.9122,2.9134,2.9145,2.9149,2.9148,2.9147,2.9146,2.9147,2.9152,2.9152,2.9155,2.9155,2.9155,0,0,2.8963,2.8979,2.8986,2.901,2.9022,2.9034,2.9043,2.9055,2.9063,2.9078,2.9091,2.9101,2.9117,2.9128,2.9134,2.9136,2.9147,2.9146,2.9146,2.9146,2.9152,2.9152,2.9152,2.9155,2.9155,2.9155,0,0,2.8961,2.8975,2.8985,2.8998,2.9017,2.9029,2.9031,2.9052,2.9059,2.9073,2.9084,2.9093,2.9114,2.9125,2.9133,2.9135,2.9142,2.9138,2.9134,2.9139,2.9139,2.9139,2.914,2.914,2.9138,2.9138,2.9138,0,2.8953,2.8973,2.8989,2.9001,2.9011,2.9025,2.9035,2.9046,2.9067,2.9072,2.9075,2.9101,2.9112,2.9127,2.9127,2.9133,2.9136,2.9136,2.9138,2.9138,2.9138,2.9139,2.9139,2.9138,2.9138,2.9138,2.9138,0,2.8962,2.8975,2.8981,2.9003,2.9013,2.9023,2.904,2.9048,2.9057,2.9068,2.9081,2.9096,2.9111,2.9115,2.9123,2.913,2.9131,2.9135,2.914,2.9137,2.9138,2.9138,2.9137,2.9137,2.9137,2.9137,0,0,2.895,2.8981,2.8983,2.8993,2.9015,2.9025,2.9035,2.9052,2.9058,2.9072,2.9081,2.9097,2.9102,2.9111,2.9121,2.9125,2.9126,2.913,2.913,2.9128,2.9134,2.913,2.913,2.9131,2.9131,2.9131,2.9132,0,2.8952,2.8974,2.8988,2.9004,2.9016,2.903,2.9039,2.9052,2.9063,2.9074,2.9085,2.9097,2.9102,2.9108,2.9113,2.9125,2.9127,2.9125,2.9138,2.9138,2.9134,2.9131,2.9127,2.9127,2.9133,2.9133,2.9133,0,2.8956,2.8971,2.8988,2.9009,2.9014,2.9023,2.9038,2.9049,2.9064,2.9071,2.9082,2.9091,2.9102,2.9105,2.912,2.9118,2.9124,2.913,2.9131,2.9132,2.9135,2.9132,2.9128,2.9128,2.9134,2.9134,2.9133,0,2.8946,2.897,2.8984,2.8992,2.9016,2.9021,2.9031,2.9047,2.9056,2.9069,2.9074,2.9088,2.9095,2.9105,2.9118,2.9119,2.9131,2.9135,2.9136,2.9136,2.9138,2.9138,2.9135,2.9142,2.9142,2.9142,2.9142,0,2.8946,2.8956,2.898,2.8988,2.8999,2.9015,2.9025,2.9036,2.9049,2.9059,2.9071,2.9079,2.9096,2.9106,2.9115,2.9126,2.9129,2.9134,2.9137,2.9133,2.9133,2.9137,2.9138,2.9142,2.9142,2.9142,2.9142,0,2.8937,2.8953,2.8969,2.8991,2.8996,2.9003,2.9022,2.9029,2.9041,2.9052,2.9056,2.9073,2.9086,2.9099,2.9116,2.9122,2.9132,2.9135,2.9127,2.9129,2.9129,2.9129,2.9129,2.913,2.9137,2.9136,2.9136,0,2.8936,2.8944,2.8967,2.8975,2.8985,2.8998,2.9007,2.9023,2.9032,2.905,2.9055,2.9068,2.908,2.9099,2.9112,2.9125,2.9129,2.9128,2.913,2.9127,2.9128,2.9128,2.9128,2.9127,2.9127,2.9127,2.9127,0,2.8933,2.894,2.8954,2.897,2.8981,2.8994,2.9008,2.9013,2.9031,2.904,2.9054,2.9063,2.908,2.9093,2.9107,2.9116,2.9124,2.9126,2.9127,2.9123,2.9118,2.9121,2.9125,2.9126,2.9126,2.9126,2.9126,2.9126,2.8927,2.8935,2.8953,2.8967,2.8979,2.8992,2.9,2.9013,2.9025,2.9041,2.9049,2.9062,2.9077,2.9097,2.9105,2.9115,2.9118,2.9119,2.9119,2.9119,2.9118,2.9117,2.9118,2.9118,2.9118,2.9118,2.9118,0,2.8924,2.8936,2.895,2.8969,2.898,2.8988,2.9003,2.9011,2.9023,2.9037,2.9048,2.9063,2.9076,2.909,2.9103,2.9108,2.9112,2.9111,2.9111,2.9113,2.9116,2.9113,2.9108,2.9108,2.9108,2.9108,2.9108,2.9108,2.8924,2.8938,2.8947,2.8966,2.8978,2.8992,2.9,2.9011,2.9022,2.9039,2.905,2.906,2.9073,2.9087,2.9099,2.9102,2.9106,2.9104,2.9109,2.9112,2.9112,2.9113,2.9111,2.9105,2.9105,2.9105,2.9105,2.9105]}]]